< < Back
Terminal Aerodrome Forecast


Current Version              Previous Versions:   1  2  3  4  5  6  7  8  9  

Terminal Aerodrome Forecast

641
FTUS42 KTAE 171100
TAFDHN
TAF
KDHN 171120Z 1712/1812 35006KT P6SM SKC
     FM171500 36007KT P6SM BKN250
     FM180300 33003KT P6SM SCT250=

Latest METAR

459
SAUS70 KWBC 172000 RRP
MTRDHN
METAR KDHN 171953Z VRB05KT 10SM CLR 17/04 A3017 RMK AO2 SLP214 T01670044
$


USA.gov is the U.S. government's official web portal to all federal, state and local government web resources and services.